Total_Precipitation_Accumulation
0.08 0.08 0.09 0.09 0.09 0.10 0.12 0.15 0.20 0.18 0.11 0.04 0.03 0.04 0.06 0.14 0.24 0.28 0.27 0.19 0.13 0.09 0.07 0.05 0.05 0.05 0.06 0.06 0.07 0.08 0.11 0.15 0.26 0.39 0.52 0.63 0.71 0.76
0.10 0.10 0.10 0.09 0.10 0.10 0.10 0.13 0.19 0.26 0.22 0.08 0.04 0.05 0.09 0.15 0.28 0.33 0.36 0.32 0.23 0.15 0.10 0.08 0.06 0.07 0.07 0.08 0.09 0.10 0.13 0.17 0.25 0.34 0.48 0.61 0.70 0.83
0.08 0.09 0.08 0.09 0.10 0.10 0.10 0.12 0.14 0.21 0.24 0.12 0.06 0.06 0.13 0.21 0.28 0.31 0.32 0.31 0.27 0.25 0.17 0.14 0.12 0.10 0.10 0.11 0.12 0.16 0.20 0.25 0.31 0.37 0.49 0.63 0.72 0.76
0.07 0.08 0.08 0.08 0.09 0.09 0.10 0.11 0.14 0.20 0.29 0.24 0.13 0.09 0.12 0.19 0.26 0.28 0.24 0.23 0.25 0.28 0.22 0.15 0.13 0.13 0.17 0.15 0.12 0.15 0.21 0.31 0.38 0.44 0.53 0.63 0.68 0.70
0.07 0.08 0.09 0.10 0.09 0.11 0.14 0.15 0.18 0.22 0.30 0.33 0.21 0.16 0.17 0.24 0.35 0.34 0.30 0.37 0.31 0.26 0.22 0.17 0.15 0.16 0.39 0.45 0.22 0.18 0.21 0.33 0.40 0.45 0.56 0.61 0.60 0.58
0.06 0.09 0.10 0.11 0.13 0.18 0.19 0.22 0.27 0.31 0.32 0.35 0.28 0.21 0.23 0.29 0.40 0.48 0.44 0.42 0.38 0.24 0.27 0.23 0.22 0.27 0.64 1.19 0.66 0.34 0.29 0.33 0.38 0.44 0.49 0.49 0.45 0.41
0.06 0.09 0.11 0.11 0.16 0.19 0.19 0.24 0.32 0.38 0.40 0.42 0.36 0.30 0.28 0.37 0.47 0.51 0.48 0.45 0.38 0.32 0.38 0.33 0.49 0.82 1.34 1.98 1.52 0.87 0.62 0.52 0.44 0.44 0.46 0.45 0.40 0.32
0.09 0.10 0.08 0.07 0.08 0.09 0.14 0.21 0.30 0.39 0.46 0.51 0.48 0.44 0.37 0.44 0.54 0.58 0.58 0.57 0.45 0.32 0.37 0.38 0.68 1.41 2.11 2.52 2.10 1.31 0.97 0.76 0.63 0.64 0.65 0.55 0.42 0.32
0.12 0.12 0.09 0.08 0.12 0.17 0.17 0.17 0.25 0.33 0.46 0.59 0.61 0.52 0.49 0.53 0.67 0.71 0.66 0.65 0.59 0.43 0.46 0.47 0.81 1.66 2.04 2.29 2.10 1.44 1.14 0.96 0.85 0.87 0.85 0.64 0.43 0.32
0.10 0.12 0.15 0.18 0.16 0.13 0.14 0.22 0.32 0.42 0.48 0.54 0.60 0.55 0.52 0.54 0.63 0.67 0.64 0.62 0.51 0.44 0.53 0.62 0.90 1.53 1.68 1.83 1.93 1.50 1.22 1.09 1.02 0.99 0.91 0.67 0.47 0.37
0.09 0.11 0.12 0.17 0.13 0.12 0.19 0.31 0.39 0.52 0.60 0.73 0.72 0.67 0.66 0.65 0.56 0.53 0.63 0.71 0.62 0.44 0.47 0.62 0.84 1.20 1.33 1.47 1.53 1.45 1.33 1.24 1.14 1.07 0.95 0.69 0.51 0.42
0.09 0.14 0.13 0.10 0.11 0.15 0.22 0.38 0.54 0.62 0.79 0.99 0.94 0.87 0.81 0.77 0.66 0.58 0.71 0.82 0.77 0.59 0.48 0.57 0.73 0.92 1.13 1.24 1.19 1.18 1.27 1.34 1.28 1.23 1.07 0.77 0.51 0.40
0.12 0.18 0.21 0.16 0.16 0.18 0.29 0.47 0.65 0.68 0.87 1.12 1.00 0.82 0.73 0.66 0.64 0.66 0.71 0.74 0.71 0.66 0.54 0.60 0.73 0.84 0.96 1.07 1.12 1.15 1.14 1.20 1.25 1.33 1.25 0.96 0.62 0.43
0.22 0.25 0.27 0.25 0.22 0.27 0.40 0.58 0.72 0.86 1.00 1.09 0.90 0.70 0.59 0.56 0.56 0.53 0.51 0.52 0.54 0.56 0.52 0.58 0.76 0.90 0.90 0.84 1.01 1.11 1.15 1.21 1.26 1.31 1.29 1.12 0.83 0.63
0.26 0.33 0.33 0.30 0.37 0.55 0.67 0.78 0.90 1.04 1.06 0.93 0.78 0.66 0.54 0.49 0.46 0.44 0.42 0.44 0.47 0.44 0.40 0.46 0.62 0.79 0.83 0.80 0.92 0.99 1.12 1.36 1.40 1.37 1.29 1.14 0.94 0.74
0.23 0.37 0.46 0.49 0.62 0.82 0.95 1.03 1.10 1.11 0.96 0.84 0.73 0.62 0.50 0.45 0.43 0.39 0.39 0.41 0.43 0.44 0.41 0.44 0.54 0.67 0.75 0.75 0.84 0.97 1.08 1.48 1.61 1.44 1.33 1.28 1.10 0.89
0.23 0.37 0.52 0.59 0.73 0.88 0.99 1.04 1.06 1.05 0.96 0.83 0.72 0.60 0.52 0.47 0.44 0.38 0.38 0.39 0.42 0.43 0.44 0.48 0.55 0.59 0.63 0.67 0.83 0.99 1.13 1.38 1.51 1.33 1.17 1.26 1.22 1.03
0.29 0.46 0.59 0.63 0.72 0.82 0.91 0.99 0.97 0.92 0.84 0.79 0.73 0.66 0.57 0.50 0.47 0.42 0.38 0.38 0.42 0.43 0.44 0.43 0.42 0.38 0.43 0.58 0.85 0.96 1.00 1.19 1.24 1.10 0.91 0.96 1.12 1.02
0.35 0.53 0.66 0.72 0.77 0.81 0.82 0.85 0.90 0.88 0.80 0.73 0.68 0.62 0.54 0.48 0.44 0.41 0.37 0.36 0.36 0.37 0.35 0.29 0.25 0.22 0.26 0.57 0.90 1.02 0.96 0.95 0.90 0.86 0.79 0.74 0.87 0.90
0.39 0.55 0.66 0.72 0.77 0.79 0.77 0.73 0.76 0.78 0.71 0.63 0.58 0.53 0.48 0.44 0.40 0.37 0.33 0.27 0.27 0.26 0.26 0.23 0.21 0.22 0.27 0.46 0.88 1.12 0.95 0.71 0.62 0.64 0.66 0.65 0.76 0.84
0.37 0.50 0.60 0.65 0.66 0.66 0.67 0.65 0.65 0.67 0.63 0.57 0.53 0.49 0.45 0.39 0.36 0.30 0.25 0.18 0.21 0.22 0.23 0.27 0.27 0.22 0.19 0.24 0.52 0.82 0.89 0.80 0.60 0.50 0.48 0.51 0.54 0.50
0.34 0.45 0.54 0.56 0.55 0.51 0.49 0.49 0.50 0.50 0.50 0.48 0.47 0.45 0.41 0.35 0.29 0.24 0.21 0.21 0.22 0.20 0.20 0.22 0.21 0.17 0.17 0.22 0.38 0.59 0.66 0.59 0.54 0.53 0.48 0.38 0.32 0.39
0.32 0.36 0.42 0.45 0.44 0.40 0.36 0.34 0.34 0.37 0.38 0.38 0.39 0.38 0.33 0.29 0.23 0.18 0.16 0.13 0.13 0.13 0.13 0.16 0.16 0.15 0.15 0.17 0.23 0.31 0.34 0.31 0.27 0.30 0.44 0.47 0.40 0.47